Location: Landeleau
(48.2273°N, 3.7285°W)
Time: 18:01:36
(UTC+00:00)

Cosmos 2084 Rocket - Pass Details

Date: 30 March 2020
Orbit: 561 x 620 km, 62.8° (Epoch: 02 June)

Event Time Altitude Azimuth Distance (km) Brightness Sun altitude
Rises 20:35:14 0° 316° (NW) 2,880 8.4 -18.5°
Reaches altitude 10° 20:37:30 10° 315° (NW) 1,979 7.3 -18.8°
Maximum altitude 20:41:59 72° 231° (SW) 652 3.6 -19.5°
Enters shadow 20:43:28 41° 158° (SSE) 903 4.0 -19.7°
